Location: Jaite
(41.2884°N, 81.5737°W)
Time: 08:34:28
(UTC+00:00)

ACS3 Solar Sail - Pass Details

Date: 15 November 2025
Orbit: 887 x 1001 km, 97.3° (Epoch: 13 December)

Event Time Altitude Azimuth Distance (km) Brightness Sun altitude
Rises 09:19:05 0° 6° (N) 3,555 4.9 -33.0°
Reaches altitude 10° 09:21:31 10° 2° (N) 2,624 4.1 -32.5°
Enters shadow 09:21:50 12° 1° (N) 2,507 4.0 -32.5°
